,,,PA_Meas_PMT16A,,PR_Meas_QMR101_102,,RH_Meas_QMH101,,SR_Meas_QMS101,,TA_Meas_QMH101,,GenWind,,GenWind,
date,time,status,PA,status,PR,status,RH,status,SR,status,TA,status,DirAvg,status,SpdAvg,
2010-09-16, 00:00:04,VALID,1000.92,VALID,0,VALID,91.3876,VALID,0,VALID,22.9598,VALID,5,VALID,0.394531,
2010-09-16, 00:01:04,VALID,1000.92,VALID,0,VALID,91.4944,VALID,0,VALID,22.9598,VALID,5,VALID,0.359375,
2010-09-16, 00:02:04,VALID,1000.91,VALID,0,VALID,91.441,VALID,0,VALID,22.9403,VALID,5,VALID,0.114063,
2010-09-16, 00:03:04,VALID,1000.91,VALID,0,VALID,91.4868,VALID,0,VALID,22.9598,VALID,5,VALID,0.136719,
2010-09-16, 00:04:04,VALID,1000.92,VALID,0,VALID,91.5097,VALID,0,VALID,22.9598,VALID,5,VALID,0.221094,
2010-09-16, 00:05:04,VALID,1000.89,VALID,0,VALID,91.5326,VALID,0,VALID,22.9598,VALID,80,VALID,0.720703,
2010-09-16, 00:06:04,VALID,1000.87,VALID,0,VALID,91.4105,VALID,0,VALID,22.9793,VALID,96,VALID,0.941016,
2010-09-16, 00:07:04,VALID,1000.82,VALID,0,VALID,91.235,VALID,0,VALID,23.0378,VALID,85,VALID,0.719922,
2010-09-16, 00:08:04,VALID,1000.8,VALID,0,VALID,90.9146,VALID,0,VALID,23.0964,VALID,85,VALID,0.498828,
2010-09-16, 00:09:04,VALID,1000.75,VALID,0,VALID,90.4339,VALID,0,VALID,23.1159,VALID,99,VALID,0.908984,
2010-09-16, 00:10:04,VALID,1000.73,VALID,0,VALID,90.0829,VALID,0,VALID,23.1354,VALID,117,VALID,1.06602,
2010-09-16, 00:11:04,VALID,1000.72,VALID,0,VALID,89.9761,VALID,0,VALID,23.1744,VALID,116,VALID,0.718359,
2010-09-16, 00:12:04,VALID,1000.7,VALID,0,VALID,89.7777,VALID,0,VALID,23.1939,VALID,116,VALID,0.718359,
2010-09-16, 00:13:04,VALID,1000.65,VALID,0,VALID,89.6938,VALID,0,VALID,23.1939,VALID,116,VALID,0.796484,
2010-09-16, 00:14:04,VALID,1000.65,VALID,0,VALID,89.7396,VALID,0,VALID,23.1939,VALID,116,VALID,0.684766,
2010-09-16, 00:15:04,VALID,1000.62,VALID,0,VALID,89.9074,VALID,0,VALID,23.2134,VALID,122,VALID,0.577344,
2010-09-16, 00:16:04,VALID,1000.62,VALID,0,VALID,89.8846,VALID,0,VALID,23.2134,VALID,122,VALID,0.450391,
2010-09-16, 00:17:04,VALID,1000.62,VALID,0,VALID,90.0448,VALID,0,VALID,23.1939,VALID,122,VALID,0.537109,
2010-09-16, 00:18:04,VALID,1000.6,VALID,0,VALID,90.2737,VALID,0,VALID,23.2134,VALID,122,VALID,0.544531,
2010-09-16, 00:19:04,VALID,1000.62,VALID,0,VALID,90.2737,VALID,0,VALID,23.2134,VALID,107,VALID,0.646484,
2010-09-16, 00:20:04,VALID,1000.59,VALID,0,VALID,90.4797,VALID,0,VALID,23.1939,VALID,102,VALID,0.669141,
2010-09-16, 00:21:04,VALID,1000.55,VALID,0,VALID,90.4797,VALID,0,VALID,23.1957,VALID,102,VALID,0.54375,
2010-09-16, 00:22:04,VALID,1000.56,VALID,0,VALID,90.4186,VALID,0,VALID,23.1744,VALID,102,VALID,0.558203,
2010-09-16, 00:23:04,VALID,1000.56,VALID,0,VALID,90.4415,VALID,0,VALID,23.1354,VALID,102,VALID,0.580469,
2010-09-16, 00:24:04,VALID,1000.55,VALID,0,VALID,90.5178,VALID,0,VALID,23.1159,VALID,102,VALID,0.821875,
2010-09-16, 00:25:04,VALID,1000.54,VALID,0,VALID,90.5026,VALID,0,VALID,23.1159,VALID,102,VALID,0.815625,
2010-09-16, 00:26:04,VALID,1000.53,VALID,0,VALID,90.2431,VALID,0,VALID,23.0769,VALID,102,VALID,0.743359,
2010-09-16, 00:27:04,VALID,1000.53,VALID,0,VALID,90.1745,VALID,0,VALID,23.0573,VALID,114,VALID,0.833984,
2010-09-16, 00:28:04,VALID,1000.53,VALID,0,VALID,90.0677,VALID,0,VALID,23.0183,VALID,105,VALID,0.687109,
2010-09-16, 00:29:04,VALID,1000.53,VALID,0,VALID,89.9609,VALID,0,VALID,22.9988,VALID,105,VALID,0.505469,
2010-09-16, 00:30:04,VALID,1000.54,VALID,0,VALID,90.0677,VALID,0,VALID,22.9988,VALID,121,VALID,0.951953,
2010-09-16, 00:31:04,VALID,1000.54,VALID,0,VALID,89.9456,VALID,0,VALID,22.9988,VALID,114,VALID,0.475391,
2010-09-16, 00:32:04,VALID,1000.53,VALID,0,VALID,89.999,VALID,0,VALID,22.9793,VALID,113,VALID,0.725,
2010-09-16, 00:33:04,VALID,1000.52,VALID,0,VALID,89.999,VALID,0,VALID,22.9793,VALID,112,VALID,0.56875,
2010-09-16, 00:34:04,VALID,1000.51,VALID,0,VALID,90.0524,VALID,0,VALID,22.9793,VALID,112,VALID,0.451562,
2010-09-16, 00:35:04,VALID,1000.49,VALID,0,VALID,90.0448,VALID,0,VALID,22.9598,VALID,112,VALID,0.166797,
2010-09-16, 00:36:04,VALID,1000.5,VALID,0,VALID,90.0143,VALID,0,VALID,22.9403,VALID,112,VALID,0.535937,
2010-09-16, 00:37:04,VALID,1000.46,VALID,0,VALID,90.1516,VALID,0,VALID,22.9208,VALID,112,VALID,0.171875,
2010-09-16, 00:38:04,VALID,1000.47,VALID,0,VALID,90.2126,VALID,0,VALID,22.942,VALID,112,VALID,0.104687,
2010-09-16, 00:39:04,VALID,1000.43,VALID,0,VALID,90.266,VALID,0,VALID,22.9208,VALID,134,VALID,0.807813,
2010-09-16, 00:40:04,VALID,1000.42,VALID,0,VALID,89.9914,VALID,0,VALID,22.9403,VALID,137,VALID,0.926953,
2010-09-16, 00:41:04,VALID,1000.4,VALID,0,VALID,89.6023,VALID,0,VALID,22.9793,VALID,137,VALID,0.481641,
2010-09-16, 00:42:04,VALID,1000.39,VALID,0,VALID,89.4268,VALID,0,VALID,23.0006,VALID,137,VALID,0.345313,
2010-09-16, 00:43:04,VALID,1000.35,VALID,0,VALID,89.3886,VALID,0,VALID,23.0183,VALID,137,VALID,0.379297,
2010-09-16, 00:44:04,VALID,1000.34,VALID,0,VALID,89.3123,VALID,0,VALID,23.0183,VALID,137,VALID,0.24375,
2010-09-16, 00:45:04,VALID,1000.35,VALID,0,VALID,89.1674,VALID,0,VALID,23.0183,VALID,137,VALID,0,
2010-09-16, 00:46:04,VALID,1000.29,VALID,0,VALID,89.2589,VALID,0,VALID,23.0183,VALID,137,VALID,0.354297,
2010-09-16, 00:47:04,VALID,1000.26,VALID,0,VALID,89.4191,VALID,0,VALID,22.9988,VALID,137,VALID,0.613281,
2010-09-16, 00:48:04,VALID,1000.25,VALID,0,VALID,89.6251,VALID,0,VALID,22.9598,VALID,137,VALID,0.686719,
2010-09-16, 00:49:04,VALID,1000.25,VALID,0,VALID,89.6709,VALID,0,VALID,22.9615,VALID,340,VALID,0.961719,
2010-09-16, 00:50:04,VALID,1000.25,VALID,0,VALID,89.6633,VALID,0,VALID,22.9013,VALID,5,VALID,1.02852,
2010-09-16, 00:51:04,VALID,1000.23,VALID,0,VALID,89.5565,VALID,0,VALID,22.8835,VALID,14,VALID,1.00508,
2010-09-16, 00:52:04,VALID,1000.18,VALID,0,VALID,89.9532,VALID,0,VALID,22.8232,VALID,12,VALID,0.778125,
2010-09-16, 00:53:04,VALID,1000.17,VALID,0,VALID,90.266,VALID,0,VALID,22.8232,VALID,12,VALID,0.751562,
2010-09-16, 00:54:04,VALID,1000.15,VALID,0,VALID,90.2889,VALID,0,VALID,22.8037,VALID,360,VALID,0.568359,
2010-09-16, 00:55:04,VALID,1000.15,VALID,0,VALID,90.2355,VALID,0,VALID,22.7842,VALID,360,VALID,0.482422,
2010-09-16, 00:56:04,VALID,1000.16,VALID,0,VALID,90.4263,VALID,0,VALID,22.7647,VALID,360,VALID,0.455859,
2010-09-16, 00:57:04,VALID,1000.15,VALID,0,VALID,90.4949,VALID,0,VALID,22.7452,VALID,42,VALID,0.699609,
2010-09-16, 00:58:04,VALID,1000.13,VALID,0,VALID,90.4339,VALID,0,VALID,22.7062,VALID,20,VALID,1.08789,
2010-09-16, 00:59:04,VALID,1000.13,VALID,0,VALID,91.0977,VALID,0,VALID,22.7062,VALID,20,VALID,1.05352,
2010-09-16, 01:00:04,VALID,1000.12,VALID,0,VALID,91.1206,VALID,0,VALID,22.6477,VALID,15,VALID,1.08984,
2010-09-16, 01:01:04,VALID,1000.1,VALID,0,VALID,91.3189,VALID,0,VALID,22.6282,VALID,18,VALID,1.16719,
2010-09-16, 01:02:04,VALID,1000.11,VALID,0,VALID,91.3113,VALID,0,VALID,22.5696,VALID,22,VALID,1.11758,
2010-09-16, 01:03:04,VALID,1000.11,VALID,0,VALID,91.3494,VALID,0,VALID,22.5306,VALID,21,VALID,1.12109,
2010-09-16, 01:04:04,VALID,1000.09,VALID,0,VALID,91.3342,VALID,0,VALID,22.4916,VALID,23,VALID,0.923047,
2010-09-16, 01:05:04,VALID,1000.09,VALID,0,VALID,91.3571,VALID,0,VALID,22.4526,VALID,23,VALID,0.914844,
2010-09-16, 01:06:04,VALID,1000.06,VALID,0,VALID,91.5402,VALID,0,VALID,22.4331,VALID,24,VALID,0.858203,
2010-09-16, 01:07:04,VALID,1000.07,VALID,0,VALID,91.7462,VALID,0,VALID,22.4314,VALID,24,VALID,0.797266,
2010-09-16, 01:08:04,VALID,1000.04,VALID,0,VALID,91.9445,VALID,0,VALID,22.4721,VALID,15,VALID,0.857422,
2010-09-16, 01:09:04,VALID,1000.05,VALID,0,VALID,92.0666,VALID,0,VALID,22.4916,VALID,7,VALID,0.672266,
2010-09-16, 01:10:04,VALID,1000.02,VALID,0,VALID,92.1734,VALID,0,VALID,22.5306,VALID,5,VALID,0.623438,
2010-09-16, 01:11:04,VALID,1000.01,VALID,0,VALID,92.2726,VALID,0,VALID,22.5696,VALID,5,VALID,0.483984,
2010-09-16, 01:12:04,VALID,1000.02,VALID,0,VALID,92.2879,VALID,0,VALID,22.6087,VALID,5,VALID,0.371484,
2010-09-16, 01:13:04,VALID,999.998,VALID,0,VALID,92.2268,VALID,0,VALID,22.6087,VALID,5,VALID,0.323828,
2010-09-16, 01:14:04,VALID,999.988,VALID,0,VALID,92.1811,VALID,0,VALID,22.6069,VALID,5,VALID,0.254297,
2010-09-16, 01:15:04,VALID,999.965,VALID,0,VALID,92.1506,VALID,0,VALID,22.6477,VALID,5,VALID,0,
2010-09-16, 01:16:04,VALID,999.98,VALID,0,VALID,92.1048,VALID,0,VALID,22.6477,VALID,5,VALID,0,
2010-09-16, 01:17:04,VALID,999.946,VALID,0,VALID,92.1582,VALID,0,VALID,22.6672,VALID,5,VALID,0.308203,
2010-09-16, 01:18:04,VALID,999.932,VALID,0,VALID,92.1277,VALID,0,VALID,22.646,VALID,5,VALID,0.306641,
2010-09-16, 01:19:04,VALID,999.945,VALID,0,VALID,92.0971,VALID,0,VALID,22.6867,VALID,5,VALID,0,
2010-09-16, 01:20:04,VALID,999.923,VALID,0,VALID,92.0361,VALID,0,VALID,22.6672,VALID,5,VALID,0.0347656,
2010-09-16, 01:21:04,VALID,999.952,VALID,0,VALID,92.0056,VALID,0,VALID,22.646,VALID,5,VALID,0.235938,
2010-09-16, 01:22:04,VALID,999.987,VALID,0,VALID,92.0209,VALID,0,VALID,22.646,VALID,5,VALID,0.280859,
2010-09-16, 01:23:04,VALID,999.961,VALID,0,VALID,92.0209,VALID,0,VALID,22.6264,VALID,5,VALID,0.298047,
2010-09-16, 01:24:04,VALID,999.997,VALID,0,VALID,92.059,VALID,0,VALID,22.6477,VALID,5,VALID,0.00195313,
2010-09-16, 01:25:04,VALID,1000.02,VALID,0,VALID,92.0437,VALID,0,VALID,22.6282,VALID,5,VALID,0,
2010-09-16, 01:26:04,VALID,1000.03,VALID,0,VALID,92.059,VALID,0,VALID,22.6069,VALID,5,VALID,0,
2010-09-16, 01:27:04,VALID,1000.03,VALID,0,VALID,92.0666,VALID,0,VALID,22.5874,VALID,5,VALID,0,
2010-09-16, 01:28:04,VALID,1000.06,VALID,0,VALID,92.0514,VALID,0,VALID,22.5892,VALID,5,VALID,0,
2010-09-16, 01:29:04,VALID,1000.02,VALID,0,VALID,91.7462,VALID,0,VALID,22.5696,VALID,128,VALID,0.738672,
2010-09-16, 01:30:04,VALID,1000.01,VALID,0,VALID,91.3037,VALID,0,VALID,22.5892,VALID,120,VALID,0.640234,
2010-09-16, 01:31:04,VALID,1000.01,VALID,0,VALID,90.8077,VALID,0,VALID,22.6087,VALID,120,VALID,0.321875,
2010-09-16, 01:32:04,VALID,999.99,VALID,0,VALID,90.6857,VALID,0,VALID,22.6087,VALID,120,VALID,0.252344,
2010-09-16, 01:33:04,VALID,999.996,VALID,0,VALID,90.7085,VALID,0,VALID,22.6282,VALID,120,VALID,0.166406,
2010-09-16, 01:34:04,VALID,999.979,VALID,0,VALID,90.5178,VALID,0,VALID,22.5874,VALID,120,VALID,0,
2010-09-16, 01:35:04,VALID,999.953,VALID,0,VALID,90.6628,VALID,0,VALID,22.5892,VALID,120,VALID,0,
2010-09-16, 01:36:04,VALID,999.968,VALID,0,VALID,90.8001,VALID,0,VALID,22.5696,VALID,120,VALID,0.433203,
2010-09-16, 01:37:04,VALID,999.965,VALID,0,VALID,90.6094,VALID,0,VALID,22.5892,VALID,120,VALID,0.317578,
2010-09-16, 01:38:04,VALID,999.971,VALID,0,VALID,90.7543,VALID,0,VALID,22.5892,VALID,106,VALID,0.550781,
2010-09-16, 01:39:04,VALID,999.98,VALID,0,VALID,90.617,VALID,0,VALID,22.6087,VALID,89,VALID,0.603516,
2010-09-16, 01:40:04,VALID,999.952,VALID,0,VALID,90.411,VALID,0,VALID,22.6282,VALID,70,VALID,0.561328,
2010-09-16, 01:41:04,VALID,999.997,VALID,0,VALID,90.5636,VALID,0,VALID,22.6264,VALID,69,VALID,0.336328,
2010-09-16, 01:42:04,VALID,999.99,VALID,0,VALID,90.6246,VALID,0,VALID,22.646,VALID,69,VALID,0.0703125,
2010-09-16, 01:43:04,VALID,999.961,VALID,0,VALID,90.6399,VALID,0,VALID,22.7257,VALID,69,VALID,0.358984,
2010-09-16, 01:44:04,VALID,999.915,VALID,0,VALID,90.6094,VALID,0.112286,VALID,22.724,VALID,69,VALID,0,
2010-09-16, 01:45:04,VALID,999.917,VALID,0,VALID,90.35,VALID,0,VALID,22.7647,VALID,69,VALID,0,
2010-09-16, 01:46:04,VALID,999.933,VALID,0,VALID,90.2966,VALID,0,VALID,22.7452,VALID,69,VALID,0.464063,
2010-09-16, 01:47:04,VALID,999.94,VALID,0,VALID,90.2889,VALID,0,VALID,22.7452,VALID,69,VALID,0.367969,
2010-09-16, 01:48:04,VALID,999.904,VALID,0,VALID,90.3805,VALID,0,VALID,22.763,VALID,69,VALID,0.273047,
2010-09-16, 01:49:04,VALID,999.901,VALID,0,VALID,90.3194,VALID,0,VALID,22.7825,VALID,69,VALID,0.292969,
2010-09-16, 01:50:04,VALID,999.893,VALID,0,VALID,90.0982,VALID,0.112286,VALID,22.8215,VALID,69,VALID,0.347656,
2010-09-16, 01:51:04,VALID,999.898,VALID,0,VALID,89.8846,VALID,0,VALID,22.8427,VALID,69,VALID,0.380078,
2010-09-16, 01:52:04,VALID,999.895,VALID,0,VALID,89.6938,VALID,0,VALID,22.8623,VALID,69,VALID,0.26875,
2010-09-16, 01:53:04,VALID,999.897,VALID,0,VALID,89.4649,VALID,0,VALID,22.8427,VALID,69,VALID,0.390625,
2010-09-16, 01:54:04,VALID,999.886,VALID,0,VALID,89.5412,VALID,0,VALID,22.8818,VALID,69,VALID,0.373828,
2010-09-16, 01:55:04,VALID,999.899,VALID,0,VALID,89.4573,VALID,0,VALID,22.9013,VALID,69,VALID,0,
2010-09-16, 01:56:04,VALID,999.93,VALID,0,VALID,89.3276,VALID,0,VALID,22.9208,VALID,69,VALID,0,
2010-09-16, 01:57:04,VALID,999.902,VALID,0,VALID,89.2589,VALID,0,VALID,22.9013,VALID,69,VALID,0,
2010-09-16, 01:58:04,VALID,999.917,VALID,0,VALID,89.1979,VALID,0,VALID,22.9013,VALID,69,VALID,0,
2010-09-16, 01:59:04,VALID,999.898,VALID,0,VALID,89.2666,VALID,0,VALID,22.8623,VALID,69,VALID,0,
2010-09-16, 02:00:04,VALID,999.877,VALID,0,VALID,89.3963,VALID,0,VALID,22.8835,VALID,69,VALID,0,
2010-09-16, 02:01:04,VALID,999.856,VALID,0,VALID,89.3963,VALID,0,VALID,22.8427,VALID,69,VALID,0,
2010-09-16, 02:02:04,VALID,999.841,VALID,0,VALID,89.2971,VALID,0,VALID,22.8037,VALID,69,VALID,0,
2010-09-16, 02:03:04,VALID,999.84,VALID,0,VALID,89.5336,VALID,0,VALID,22.7647,VALID,69,VALID,0,
2010-09-16, 02:04:04,VALID,999.813,VALID,0,VALID,89.7854,VALID,0,VALID,22.7647,VALID,69,VALID,0,
2010-09-16, 02:05:04,VALID,999.844,VALID,0,VALID,89.7854,VALID,0,VALID,22.7647,VALID,69,VALID,0,
2010-09-16, 02:06:04,VALID,999.827,VALID,0,VALID,89.9609,VALID,0,VALID,22.724,VALID,69,VALID,0,
2010-09-16, 02:07:04,VALID,999.874,VALID,0,VALID,89.8693,VALID,0,VALID,22.7452,VALID,69,VALID,0,
2010-09-16, 02:08:04,VALID,999.825,VALID,0,VALID,89.9456,VALID,0,VALID,22.7257,VALID,112,VALID,0,
2010-09-16, 02:09:04,VALID,999.871,VALID,0,VALID,89.9761,VALID,0,VALID,22.7452,VALID,112,VALID,0.694531,
2010-09-16, 02:10:04,VALID,999.881,VALID,0,VALID,89.8846,VALID,0,VALID,22.7452,VALID,112,VALID,0.948047,
2010-09-16, 02:11:04,VALID,999.922,VALID,0,VALID,89.8083,VALID,0,VALID,22.7647,VALID,112,VALID,0.763281,
2010-09-16, 02:12:04,VALID,999.93,VALID,0,VALID,89.9303,VALID,0,VALID,22.7842,VALID,110,VALID,0.675391,
2010-09-16, 02:13:04,VALID,999.937,VALID,0,VALID,89.9914,VALID,0,VALID,22.7842,VALID,89,VALID,0.666016,
2010-09-16, 02:14:04,VALID,999.909,VALID,0,VALID,90.1211,VALID,0,VALID,22.7842,VALID,45,VALID,0.689062,
2010-09-16, 02:15:04,VALID,999.942,VALID,0,VALID,90.0829,VALID,0,VALID,22.7842,VALID,38,VALID,0.995313,
2010-09-16, 02:16:04,VALID,999.963,VALID,0,VALID,90.0371,VALID,0,VALID,22.7452,VALID,38,VALID,1.24063,
2010-09-16, 02:17:04,VALID,999.951,VALID,0,VALID,90.4491,VALID,0,VALID,22.7452,VALID,30,VALID,0.887891,
2010-09-16, 02:18:04,VALID,999.981,VALID,0,VALID,89.9761,VALID,0,VALID,22.724,VALID,30,VALID,0.8125,
2010-09-16, 02:19:04,VALID,999.973,VALID,0,VALID,89.8769,VALID,0,VALID,22.7062,VALID,30,VALID,0.820703,
2010-09-16, 02:20:04,VALID,999.967,VALID,0,VALID,90.6246,VALID,0,VALID,22.685,VALID,30,VALID,0.791406,
2010-09-16, 02:21:04,VALID,999.989,VALID,0,VALID,90.8077,VALID,0,VALID,22.7062,VALID,30,VALID,0.823828,
2010-09-16, 02:22:04,VALID,999.97,VALID,0,VALID,90.8688,VALID,0,VALID,22.6867,VALID,30,VALID,0.875,
2010-09-16, 02:23:04,VALID,999.994,VALID,0,VALID,91.1587,VALID,0,VALID,22.7079,VALID,29,VALID,0.798047,
2010-09-16, 02:24:04,VALID,1000,VALID,0,VALID,91.3571,VALID,0,VALID,22.7062,VALID,15,VALID,0.825391,
2010-09-16, 02:25:04,VALID,1000,VALID,0,VALID,91.3342,VALID,0,VALID,22.6867,VALID,11,VALID,0.749609,
2010-09-16, 02:26:04,VALID,1000.01,VALID,0,VALID,91.4334,VALID,0,VALID,22.7062,VALID,11,VALID,0.457812,
2010-09-16, 02:27:04,VALID,999.988,VALID,0,VALID,91.4791,VALID,0,VALID,22.6867,VALID,11,VALID,0.247656,
2010-09-16, 02:28:04,VALID,999.976,VALID,0,VALID,91.3647,VALID,0,VALID,22.6867,VALID,11,VALID,0.313281,
2010-09-16, 02:29:04,VALID,1000.01,VALID,0,VALID,91.3723,VALID,0,VALID,22.646,VALID,11,VALID,0.257813,
2010-09-16, 02:30:04,VALID,1000.02,VALID,0,VALID,91.4639,VALID,0,VALID,22.6672,VALID,11,VALID,0.338281,
2010-09-16, 02:31:04,VALID,1000.01,VALID,0,VALID,91.4868,VALID,0,VALID,22.6672,VALID,11,VALID,0.394922,
2010-09-16, 02:32:04,VALID,1000.04,VALID,0,VALID,91.5173,VALID,0,VALID,22.6672,VALID,11,VALID,0.294141,
2010-09-16, 02:33:04,VALID,1000.02,VALID,0,VALID,91.6012,VALID,0,VALID,22.6672,VALID,11,VALID,0.344531,
2010-09-16, 02:34:04,VALID,1000.05,VALID,0,VALID,91.6241,VALID,0,VALID,22.6867,VALID,11,VALID,0.345313,
2010-09-16, 02:35:04,VALID,1000.05,VALID,0,VALID,91.6165,VALID,0,VALID,22.6867,VALID,11,VALID,0.142188,
2010-09-16, 02:36:04,VALID,1000.08,VALID,0,VALID,91.5402,VALID,0,VALID,22.6867,VALID,11,VALID,0,
2010-09-16, 02:37:04,VALID,1000.06,VALID,0,VALID,91.502,VALID,0,VALID,22.6672,VALID,11,VALID,0,
2010-09-16, 02:38:04,VALID,1000.05,VALID,0,VALID,91.4944,VALID,0,VALID,22.6689,VALID,11,VALID,0.145703,
2010-09-16, 02:39:04,VALID,1000.09,VALID,0,VALID,91.5173,VALID,0,VALID,22.6689,VALID,11,VALID,0.205469,
2010-09-16, 02:40:04,VALID,1000.09,VALID,0,VALID,91.5478,VALID,0,VALID,22.6087,VALID,11,VALID,0.225781,
2010-09-16, 02:41:04,VALID,1000.11,VALID,0,VALID,91.7157,VALID,0,VALID,22.6494,VALID,11,VALID,0.0917969,
2010-09-16, 02:42:04,VALID,1000.11,VALID,0,VALID,91.8072,VALID,0,VALID,22.6282,VALID,11,VALID,0,
2010-09-16, 02:43:04,VALID,1000.11,VALID,0,VALID,91.7996,VALID,0,VALID,22.5892,VALID,11,VALID,0,
2010-09-16, 02:44:04,VALID,1000.11,VALID,0,VALID,91.792,VALID,0,VALID,22.5696,VALID,11,VALID,0,
2010-09-16, 02:45:04,VALID,1000.12,VALID,0,VALID,91.8759,VALID,0,VALID,22.5696,VALID,11,VALID,0.300781,
2010-09-16, 02:46:04,VALID,1000.14,VALID,0,VALID,92.0437,VALID,0,VALID,22.5892,VALID,11,VALID,0.351563,
2010-09-16, 02:47:04,VALID,1000.13,VALID,0,VALID,92.1506,VALID,0,VALID,22.5892,VALID,11,VALID,0.355859,
2010-09-16, 02:48:04,VALID,1000.11,VALID,0,VALID,92.1734,VALID,0,VALID,22.6104,VALID,11,VALID,0.397656,
2010-09-16, 02:49:04,VALID,1000.14,VALID,0,VALID,92.2116,VALID,0,VALID,22.5892,VALID,11,VALID,0.558984,
2010-09-16, 02:50:04,VALID,1000.12,VALID,0,VALID,92.1658,VALID,0,VALID,22.5892,VALID,11,VALID,0.549609,
2010-09-16, 02:51:04,VALID,1000.14,VALID,0,VALID,92.0361,VALID,0.112286,VALID,22.5501,VALID,11,VALID,0.576172,
2010-09-16, 02:52:04,VALID,1000.12,VALID,0,VALID,91.9903,VALID,0,VALID,22.5501,VALID,11,VALID,0.533984,
2010-09-16, 02:53:04,VALID,1000.14,VALID,0,VALID,91.9674,VALID,0,VALID,22.5111,VALID,11,VALID,0.362109,
2010-09-16, 02:54:04,VALID,1000.12,VALID,0,VALID,91.9522,VALID,0,VALID,22.4721,VALID,11,VALID,0.180859,
2010-09-16, 02:55:04,VALID,1000.13,VALID,0,VALID,91.998,VALID,0,VALID,22.4526,VALID,11,VALID,0.0632813,
2010-09-16, 02:56:04,VALID,1000.17,VALID,0,VALID,92.0895,VALID,0,VALID,22.4526,VALID,11,VALID,0,
2010-09-16, 02:57:04,VALID,1000.15,VALID,0,VALID,92.1124,VALID,0,VALID,22.4331,VALID,11,VALID,0,
2010-09-16, 02:58:04,VALID,1000.23,VALID,0,VALID,92.1429,VALID,0,VALID,22.3941,VALID,11,VALID,0,
2010-09-16, 02:59:04,VALID,1000.2,VALID,0,VALID,92.204,VALID,0,VALID,22.3746,VALID,11,VALID,0,
2010-09-16, 03:00:04,VALID,1000.21,VALID,0,VALID,92.204,VALID,0,VALID,22.3551,VALID,11,VALID,0,
2010-09-16, 03:01:04,VALID,1000.2,VALID,0,VALID,92.3031,VALID,0,VALID,22.3551,VALID,11,VALID,0,
2010-09-16, 03:02:04,VALID,1000.17,VALID,0,VALID,92.4786,VALID,0,VALID,22.3551,VALID,11,VALID,0,
2010-09-16, 03:03:04,VALID,1000.16,VALID,0,VALID,92.6083,VALID,0,VALID,22.3746,VALID,11,VALID,0.053125,
2010-09-16, 03:04:04,VALID,1000.16,VALID,0,VALID,92.7228,VALID,0,VALID,22.3746,VALID,11,VALID,0.201562,
2010-09-16, 03:05:04,VALID,1000.16,VALID,0,VALID,92.7914,VALID,0,VALID,22.3941,VALID,11,VALID,0.264453,
2010-09-16, 03:06:04,VALID,1000.15,VALID,0,VALID,92.883,VALID,0,VALID,22.3941,VALID,11,VALID,0.407031,
2010-09-16, 03:07:04,VALID,1000.12,VALID,0,VALID,92.9593,VALID,0,VALID,22.4136,VALID,11,VALID,0.525781,
2010-09-16, 03:08:04,VALID,1000.13,VALID,0,VALID,92.9822,VALID,0,VALID,22.4136,VALID,11,VALID,0.4375,
2010-09-16, 03:09:04,VALID,1000.11,VALID,0,VALID,92.9745,VALID,0,VALID,22.4136,VALID,11,VALID,0.401563,
2010-09-16, 03:10:04,VALID,1000.14,VALID,0,VALID,92.9669,VALID,0,VALID,22.4331,VALID,11,VALID,0.340234,
2010-09-16, 03:11:04,VALID,1000.1,VALID,0,VALID,92.9364,VALID,0,VALID,22.4526,VALID,11,VALID,0.364844,
2010-09-16, 03:12:04,VALID,1000.08,VALID,0,VALID,92.8906,VALID,0,VALID,22.4738,VALID,11,VALID,0.45625,
2010-09-16, 03:13:04,VALID,1000.05,VALID,0,VALID,92.8601,VALID,0,VALID,22.4509,VALID,11,VALID,0.397656,
2010-09-16, 03:14:04,VALID,1000.06,VALID,0,VALID,92.7533,VALID,0,VALID,22.4721,VALID,11,VALID,0.379687,
2010-09-16, 03:15:04,VALID,1000.04,VALID,0,VALID,92.677,VALID,0,VALID,22.4721,VALID,11,VALID,0.371484,
2010-09-16, 03:16:04,VALID,1000.05,VALID,0,VALID,92.6083,VALID,0,VALID,22.4509,VALID,11,VALID,0.420703,
2010-09-16, 03:17:04,VALID,1000.05,VALID,0,VALID,92.4863,VALID,0,VALID,22.4331,VALID,11,VALID,0.384375,
2010-09-16, 03:18:04,VALID,1000.11,VALID,0,VALID,92.3642,VALID,0,VALID,22.4331,VALID,11,VALID,0.291406,
2010-09-16, 03:19:04,VALID,1000.12,VALID,0,VALID,92.3108,VALID,0,VALID,22.3941,VALID,11,VALID,0.423047,
2010-09-16, 03:20:04,VALID,1000.12,VALID,0,VALID,92.2955,VALID,0,VALID,22.3941,VALID,11,VALID,0.473828,
2010-09-16, 03:21:04,VALID,1000.17,VALID,0,VALID,92.4328,VALID,0.112286,VALID,22.3941,VALID,11,VALID,0.494922,
2010-09-16, 03:22:04,VALID,1000.14,VALID,0,VALID,92.4634,VALID,0,VALID,22.3941,VALID,11,VALID,0.0984375,
2010-09-16, 03:23:04,VALID,1000.15,VALID,0,VALID,92.4939,VALID,0,VALID,22.3941,VALID,11,VALID,0,
2010-09-16, 03:24:04,VALID,1000.17,VALID,0,VALID,92.4634,VALID,0,VALID,22.3746,VALID,11,VALID,0.15625,
2010-09-16, 03:25:04,VALID,1000.17,VALID,0,VALID,92.4557,VALID,0,VALID,22.3356,VALID,11,VALID,0.360547,
2010-09-16, 03:26:04,VALID,1000.17,VALID,0,VALID,92.471,VALID,0,VALID,22.3356,VALID,11,VALID,0.519141,
2010-09-16, 03:27:04,VALID,1000.18,VALID,0,VALID,92.5626,VALID,0,VALID,22.3339,VALID,11,VALID,0.467969,
2010-09-16, 03:28:04,VALID,1000.18,VALID,0,VALID,92.5931,VALID,0,VALID,22.3551,VALID,11,VALID,0.463672,
2010-09-16, 03:29:04,VALID,1000.22,VALID,0,VALID,92.6312,VALID,0,VALID,22.3551,VALID,11,VALID,0.527344,
2010-09-16, 03:30:04,VALID,1000.24,VALID,0,VALID,92.6617,VALID,0,VALID,22.3551,VALID,11,VALID,0.433984,
2010-09-16, 03:31:04,VALID,1000.23,VALID,0,VALID,92.677,VALID,0,VALID,22.3551,VALID,11,VALID,0.282422,
2010-09-16, 03:32:04,VALID,1000.23,VALID,0,VALID,92.6846,VALID,0,VALID,22.3551,VALID,11,VALID,0.0175781,
2010-09-16, 03:33:04,VALID,1000.23,VALID,0,VALID,92.6694,VALID,0,VALID,22.3339,VALID,11,VALID,0,
2010-09-16, 03:34:04,VALID,1000.25,VALID,0,VALID,92.6312,VALID,0,VALID,22.2966,VALID,11,VALID,0,
2010-09-16, 03:35:04,VALID,1000.23,VALID,0,VALID,92.5626,VALID,0,VALID,22.2754,VALID,11,VALID,0,
2010-09-16, 03:36:04,VALID,1000.24,VALID,0,VALID,92.6007,VALID,0,VALID,22.2559,VALID,11,VALID,0,
2010-09-16, 03:37:04,VALID,1000.26,VALID,0,VALID,92.7228,VALID,0,VALID,22.2966,VALID,11,VALID,0,
2010-09-16, 03:38:04,VALID,1000.24,VALID,0,VALID,92.7991,VALID,0,VALID,22.3161,VALID,11,VALID,0,
2010-09-16, 03:39:04,VALID,1000.25,VALID,0,VALID,92.8372,VALID,0,VALID,22.3161,VALID,11,VALID,0,
2010-09-16, 03:40:04,VALID,1000.31,VALID,0,VALID,92.8754,VALID,0,VALID,22.3144,VALID,11,VALID,0.00078125,
2010-09-16, 03:41:04,VALID,1000.32,VALID,0,VALID,92.9211,VALID,0,VALID,22.3356,VALID,11,VALID,0.34375,
2010-09-16, 03:42:04,VALID,1000.32,VALID,0,VALID,92.9517,VALID,0,VALID,22.3551,VALID,11,VALID,0.326953,
2010-09-16, 03:43:04,VALID,1000.31,VALID,0,VALID,92.944,VALID,0,VALID,22.3534,VALID,121,VALID,0.860156,
2010-09-16, 03:44:04,VALID,1000.31,VALID,0,VALID,92.8677,VALID,0,VALID,22.3746,VALID,138,VALID,0.647656,
2010-09-16, 03:45:04,VALID,1000.35,VALID,0,VALID,92.7838,VALID,0,VALID,22.3941,VALID,138,VALID,0.596875,
2010-09-16, 03:46:04,VALID,1000.38,VALID,0,VALID,92.6312,VALID,0,VALID,22.4136,VALID,138,VALID,0.808594,
2010-09-16, 03:47:04,VALID,1000.38,VALID,0,VALID,92.4481,VALID,0,VALID,22.4136,VALID,134,VALID,0.722266,
2010-09-16, 03:48:04,VALID,1000.4,VALID,0,VALID,92.2268,VALID,0,VALID,22.4331,VALID,134,VALID,0.656641,